Weather in Vonguda

Russia / Arkhangel'skaya Oblast'     63°51′51″N   38°31′17″E
temp.,
°C
wind,
m/s
gust,
m/s
humid.,
%
clouds,
%
prec.,
mm/h
press.,
hPa
HPBL,
m
14 april, wed
wed1400:00+5s259795 0.0 1017110
03:00+4sw2696100 0.0 1016136
06:00+5ssw26100100 0.0 1015235
09:00+3nw4798100 1.2 1014416
12:00+2wnw1698100 0.9 1015432
15:00+5wsw268484 1.3 1015686
18:00+4nw387696 0.2 1017583
21:00+1nw3117839 0.2 1019480
15 april, thu
thu1500:000wnw310855 0.0 1022379
03:00−1wnw311865 0.0 1024414
06:00−1wnw310875 0.0 1026471
09:00+2nw58695 0.0 1028727
12:00+3nw47551 0.0 1030903
15:00+4nw45510 0.0 1032825
18:00+3wnw24570 0.0 1032380
21:00−1ssw21785 0.0 103215
16 april, fri
fri1600:00−1sw26809 0.0 1032104
03:000wsw310755 0.0 1032214
06:000w310775 0.0 1032276
09:00+4wnw47665 0.0 1032538
12:00+6wnw47622 0.0 1033641
15:00+7nw48580 0.0 1034624
18:00+6wnw38660 0.0 1034410
21:00+2wnw26790 0.0 103498
17 april, sat
sat1700:00+1nw23845 0.0 103555
03:000nw22915 0.0 103630
06:00+1nw11915 0.0 103725
09:00+6wnw357010 0.0 1036421
12:00+8wnw476055 0.0 1036733
15:00+9nw47565 0.0 1036720
18:00+7wnw26625 0.0 1035331
21:00+3nw22774 0.0 103534
18 april, sun
sun1800:00+2nw12790 0.0 103511
03:00+2wnw11800 0.0 103510
06:00+2sw11800 0.0 103510
09:00+7wsw12640 0.0 1035324
12:00+11wnw23514 0.0 10351065
15:00+12nw23444 0.0 10341410
18:00+10n235287 0.0 1034357
21:00+7ene116596 0.0 103410